EA5SW-14 Weather Reports


time (UTC)temp
C
wind
direction
speed
KPH
gust
KPH
rain 1hr
cm
rain 24hr
cm
rain mn
cm
humidity
%
barometer
mb
20260503013229 13 51 4.8 6.4 0.00 0.00 0.00 90 1010.6
20260503012224 13 83 3.2 6.4 0.00 0.00 0.00 89 1010.7
20260503011220 13 44 4.8 9.7 0.00 0.00 0.00 89 1010.9
20260503010216 13 60 3.2 6.4 0.00 0.00 0.00 89 1011.1
20260503005312 13 51 3.2 6.4 0.00 0.00 0.00 88 1011.2
20260503004308 13 84 3.2 6.4 0.00 0.00 0.00 89 1011.3
20260503003303 13 105 3.2 6.4 0.00 0.00 0.00 89 1011.3
20260503002259 13 68 3.2 6.4 0.00 0.00 0.00 88 1011.3
20260503001255 13 73 4.8 6.4 0.00 0.00 0.00 88 1011.6
20260503000311 13 90 3.2 6.4 0.00 0.00 0.00 88 1011.8
20260502235307 14 90 3.2 6.4 0.00 0.00 0.00 88 1012.0
20260502234242 14 90 3.2 6.4 0.00 0.00 0.00 88 1012.1
20260502233258 14 97 6.4 6.4 0.00 0.00 0.00 88 1012.1
20260502232233 14 107 4.8 6.4 0.00 0.00 0.00 88 1012.0
20260502231229 14 77 4.8 9.7 0.00 0.00 0.00 88 1012.1
20260502230305 14 90 6.4 6.4 0.00 0.00 0.00 88 1012.1
20260502225221 14 98 4.8 9.7 0.00 0.00 0.00 88 1012.2
20260502224217 14 82 4.8 6.4 0.00 0.00 0.00 88 1012.2
20260502223313 14 72 4.8 6.4 0.00 0.00 0.00 88 1012.3
20260502222308 14 68 6.4 11.3 0.00 0.00 0.00 88 1012.0
20260502221304 14 32 6.4 11.3 0.00 0.00 0.00 89 1011.9
20260502220320 14 83 6.4 14.5 0.00 0.00 0.00 89 1011.9
20260502215255 14 60 4.8 11.3 0.00 0.00 0.00 89 1012.2
20260502214311 14 71 6.4 12.9 0.00 0.00 0.00 89 1012.2
20260502213246 14 51 6.4 9.7 0.00 0.00 0.00 88 1012.0
20260502212304 14 77 4.8 6.4 0.00 0.00 0.00 88 1012.2
20260502211258 14 98 4.8 6.4 0.00 0.00 0.00 88 1012.0
20260502210234 14 104 4.8 9.7 0.00 0.00 0.00 88 1012.0
20260502205229 14 77 6.4 6.4 0.00 0.00 0.00 89 1012.0
20260502204225 14 83 4.8 6.4 0.00 0.00 0.00 89 1012.1
20260502203220 14 75 4.8 6.4 0.00 0.00 0.00 88 1011.8
20260502202216 14 68 3.2 6.4 0.00 0.00 0.00 87 1012.0
20260502201332 15 51 3.2 6.4 0.00 0.00 0.00 86 1011.8
20260502200308 15 68 6.4 9.7 0.00 0.00 0.00 86 1011.6
20260502195305 15 76 6.4 11.3 0.00 0.00 0.00 86 1011.8
20260502194300 15 83 6.4 11.3 0.00 0.00 0.00 86 1011.6
20260502193316 15 44 6.4 11.3 0.00 0.00 0.00 86 1011.6
20260502192251 15 99 6.4 11.3 0.00 0.00 0.00 85 1011.4
20260502191247 15 74 9.7 12.9 0.00 0.00 0.00 85 1011.4
20260502190302 16 83 6.4 9.7 0.00 0.00 0.00 84 1011.6
20260502185238 16 66 6.4 9.7 0.00 0.00 0.00 84 1011.6
20260502184234 16 83 4.8 6.4 0.00 0.00 0.00 83 1011.4
20260502183250 16 75 3.2 6.4 0.00 0.00 0.00 83 1011.5
20260502182246 16 83 6.4 11.3 0.00 0.00 0.00 82 1011.4
20260502181221 16 98 3.2 6.4 0.00 0.00 0.00 82 1011.1
20260502180217 16 68 4.8 9.7 0.00 0.00 0.00 82 1011.1
20260502170252 18 83 3.2 9.7 0.00 0.00 0.00 75 1011.5
20260502164244 18 71 3.2 6.4 0.00 0.00 0.00 74 1011.6
20260502163240 18 75 3.2 9.7 0.00 0.00 0.00 73 1011.6
20260502162255 18 106 6.4 12.9 0.00 0.00 0.00 72 1011.6
20260502161231 19 94 6.4 11.3 0.00 0.00 0.00 71 1011.7
20260502160227 20 52 6.4 11.3 0.00 0.00 0.00 69 1011.7
20260502152330 20 89 4.8 11.3 0.00 0.03 0.00 68 1012.1
20260502151306 21 73 3.2 6.4 0.00 0.03 0.00 65 1012.0
20260502150301 20 113 6.4 14.5 0.00 0.03 0.00 67 1012.3
20260502130311 19 19 4.8 9.7 0.00 0.03 0.00 68 1014.1
20260502123258 19 94 6.4 11.3 0.00 0.03 0.00 68 1014.2
20260502122254 19 74 6.4 14.5 0.00 0.03 0.00 69 1014.3
20260502121250 19 68 4.8 11.3 0.00 0.03 0.00 68 1014.3
20260502120245 18 55 8.0 14.5 0.00 0.03 0.00 67 1014.4
20260502115241 18 85 8.0 17.7 0.00 0.03 0.00 67 1014.4
20260502114236 18 113 3.2 11.3 0.00 0.03 0.00 67 1014.4
20260502113232 18 68 8.0 14.5 0.00 0.03 0.00 67 1014.7
20260502112248 18 92 4.8 11.3 0.00 0.03 0.00 67 1014.8
20260502111224 18 84 8.0 20.9 0.00 0.03 0.00 67 1014.8
20260502110219 18 113 8.0 17.7 0.00 0.03 0.00 69 1015.1
20260502105215 18 81 6.4 11.3 0.00 0.03 0.00 69 1015.0
20260502104311 18 105 6.4 12.9 0.00 0.03 0.00 70 1015.3
20260502103307 17 68 4.8 9.7 0.00 0.03 0.00 72 1015.3
20260502102305 17 75 6.4 14.5 0.00 0.03 0.00 72 1015.4
20260502101258 17 90 4.8 9.7 0.00 0.03 0.00 73 1015.3
20260502100254 17 56 4.8 11.3 0.00 0.03 0.00 73 1015.3
20260502091233 17 90 4.8 11.3 0.00 0.03 0.00 71 1015.5
20260502090229 17 106 1.6 9.7 0.00 0.03 0.00 74 1015.4
20260502071302 15 77 4.8 6.4 0.00 0.03 0.00 84 1015.7
20260502070258 14 101 3.2 6.4 0.00 0.03 0.00 86 1015.6
20260502065234 14 90 1.6 3.2 0.00 0.03 0.00 87 1015.8
20260502064229 14 56 4.8 6.4 0.00 0.03 0.00 87 1015.6
20260502063245 14 75 3.2 6.4 0.00 0.03 0.00 88 1015.8
20260502062221 13 83 3.2 6.4 0.00 0.03 0.00 89 1015.6
20260502061217 13 52 3.2 6.4 0.00 0.03 0.00 89 1015.7
20260502060313 13 79 3.2 6.4 0.00 0.03 0.00 89 1015.6
20260502055308 13 81 4.8 6.4 0.00 0.03 0.00 89 1015.4
20260502054344 13 90 3.2 6.4 0.00 0.03 0.00 90 1015.2
20260502053320 13 90 1.6 3.2 0.00 0.03 0.00 90 1015.3
20260502052256 13 68 3.2 6.4 0.00 0.03 0.00 90 1015.2
20260502051251 13 90 3.2 6.4 0.00 0.03 0.00 90 1015.4
20260502050247 13 56 3.2 6.4 0.00 0.03 0.00 90 1015.4
20260502045242 13 68 3.2 6.4 0.00 0.03 0.00 89 1015.5
20260502044238 13 68 1.6 3.2 0.00 0.03 0.00 89 1015.6
20260502043233 13 90 3.2 6.4 0.00 0.03 0.00 88 1015.7
20260502042229 13 90 1.6 6.4 0.00 0.03 0.00 88 1015.8
20260502041225 13 71 1.6 6.4 0.00 0.03 0.00 89 1015.6
20260502040221 13 83 3.2 3.2 0.00 0.03 0.00 90 1015.7
20260502035216 13 78 1.6 3.2 0.00 0.03 0.00 90 1015.8
20260502034332 13 90 4.8 6.4 0.00 0.03 0.00 89 1015.9
20260502033327 13 83 3.2 6.4 0.00 0.03 0.00 90 1015.8
20260502032306 13 68 1.6 6.4 0.00 0.03 0.00 90 1016.2
20260502031259 13 68 1.6 3.2 0.00 0.03 0.00 90 1016.3
20260502030315 13 0.0 0.0 0.00 0.03 0.00 90 1016.4
20260502025311 13 83 3.2 3.2 0.00 0.03 0.00 90 1016.3
20260502024247 13 94 4.8 6.4 0.00 0.03 0.00 90 1016.1
20260502023242 13 103 3.2 6.4 0.00 0.03 0.00 90 1016.3
20260502022238 13 68 1.6 3.2 0.00 0.03 0.00 90 1016.0
20260502021234 13 71 1.6 6.4 0.00 0.03 0.00 90 1016.0
20260502020230 13 73 4.8 6.4 0.00 0.03 0.00 90 1016.1
20260502015225 13 83 3.2 3.2 0.00 0.03 0.00 90 1016.1
20260502014241 13 68 3.2 3.2 0.00 0.03 0.00 90 1016.1